Lapse_Rate
6.9 6.6 6.6 7.1 7.1 7.2 7.4 7.7 7.9 8.1 8.9 8.9 9.0 9.2 8.4 8.3 8.5 8.2 7.8 7.2 6.9 6.7 6.8 6.8 7.1 7.1 7.5 7.4 7.2 7.0 6.9 6.9 6.7 6.7 6.5 6.5 6.6 6.4 6.0 5.3 5.5 5.4 5.4 5.4
6.5 6.5 7.1 7.4 7.4 7.5 7.7 7.9 7.9 7.9 8.5 9.4 9.3 9.2 8.8 8.3 8.0 8.2 7.9 7.7 7.4 6.8 6.8 7.0 7.1 7.6 7.7 7.4 6.9 7.2 7.0 7.1 7.0 7.0 6.9 6.7 6.6 6.3 6.1 5.6 5.4 5.3 5.2 5.2
6.6 7.2 7.6 7.5 7.7 7.8 7.8 7.9 8.0 8.2 8.6 9.0 9.0 9.6 9.0 8.2 8.0 8.1 7.4 7.0 7.2 7.2 6.9 7.3 7.3 7.6 7.5 7.5 7.2 7.1 7.0 7.1 7.1 7.0 6.9 6.8 6.9 6.9 6.6 5.7 5.7 5.5 5.1 5.1
6.8 7.1 7.4 7.7 7.8 8.0 7.8 8.0 8.0 8.2 8.8 8.7 9.2 8.9 8.2 8.0 7.3 7.3 7.6 7.0 6.5 6.7 6.8 6.9 6.9 7.2 7.4 7.4 7.3 7.1 7.0 7.2 7.1 7.1 7.0 6.9 6.9 6.9 6.3 5.7 5.7 5.6 5.2 5.1
7.0 7.3 7.5 7.7 7.9 8.0 7.7 8.1 8.2 8.1 7.9 8.0 8.7 9.3 8.9 7.6 6.7 6.7 7.2 7.1 6.6 6.4 6.7 7.1 7.4 7.3 7.1 7.2 7.2 7.2 7.2 7.2 7.1 7.0 7.0 7.1 7.1 6.7 6.4 6.0 5.8 5.6 5.4 5.4
6.9 7.2 7.2 7.4 7.8 7.8 8.0 7.9 8.1 8.1 7.9 7.6 8.0 8.6 8.2 7.6 7.5 7.2 7.6 7.6 7.2 6.9 6.6 7.1 7.5 7.4 7.4 7.4 7.4 7.3 7.4 7.3 7.2 7.1 7.0 7.0 6.9 6.5 6.3 6.1 5.8 5.6 5.6 5.6
7.2 7.3 7.4 7.6 7.6 7.6 8.0 8.0 7.4 7.2 7.1 6.8 8.1 8.2 7.7 8.1 8.1 8.0 7.9 8.1 8.1 7.9 7.5 7.7 8.0 7.6 7.6 7.6 7.7 7.6 7.6 7.5 7.5 7.2 6.9 6.8 6.7 6.4 6.2 6.1 5.9 5.7 5.7 5.7
7.0 7.0 7.5 8.1 7.8 8.0 8.0 8.3 7.7 6.8 6.5 7.3 8.0 8.4 8.1 8.0 8.3 9.1 8.9 9.0 8.5 8.0 7.2 7.2 7.6 7.8 7.9 7.8 8.0 8.1 7.8 7.6 7.5 7.2 7.0 6.8 6.4 6.2 6.2 6.0 6.1 5.8 5.9 5.8
6.8 6.7 7.5 7.8 8.1 8.5 8.2 8.1 8.3 8.4 8.2 8.2 7.8 8.2 8.2 8.4 8.4 8.5 9.2 8.9 8.7 8.3 7.7 7.9 8.3 8.0 7.4 7.9 7.8 7.9 8.1 7.8 7.6 7.4 7.2 6.9 6.8 6.5 6.1 6.1 6.1 6.1 6.0 5.8
6.3 5.9 7.0 7.8 8.1 8.1 9.0 9.0 8.9 8.8 7.7 7.6 7.7 8.0 7.9 8.0 8.5 9.1 9.2 9.0 9.1 9.1 8.0 8.5 8.7 8.1 7.8 8.1 8.0 8.1 7.8 7.7 7.7 7.6 7.2 7.1 6.9 6.4 6.3 6.2 6.2 6.1 6.1 6.0
6.2 6.2 6.2 7.6 8.2 8.2 8.9 9.3 9.5 9.4 9.2 8.2 7.7 7.7 7.9 8.0 8.1 8.6 9.1 9.4 9.5 8.8 8.7 8.3 8.0 8.3 8.1 8.1 7.8 7.6 7.2 7.6 7.6 7.6 7.2 7.2 6.7 6.4 6.4 6.3 6.3 6.3 6.2 6.2
6.3 6.2 6.2 6.8 7.9 8.3 8.3 8.4 8.8 9.1 9.0 9.2 9.1 7.6 7.9 8.1 8.5 8.8 9.0 9.5 9.2 8.6 8.8 8.9 8.6 8.5 8.4 8.2 7.7 7.4 7.0 7.2 7.4 7.6 7.6 7.1 6.7 6.5 6.3 6.2 6.3 6.5 6.4 6.3
6.2 6.3 6.2 7.2 7.7 8.2 8.2 8.3 7.9 7.7 8.2 8.9 8.3 7.1 8.4 8.1 8.4 8.7 8.7 9.2 9.2 9.0 8.5 8.3 8.3 8.4 8.5 8.5 8.2 7.5 7.3 6.9 6.8 7.1 6.9 6.7 6.3 6.3 6.3 6.4 6.5 6.4 6.4 6.4
5.4 6.1 6.1 5.7 5.9 6.1 6.4 7.2 7.5 7.0 7.2 7.5 7.7 7.1 8.3 8.2 8.2 8.7 8.6 8.8 8.9 8.6 7.9 8.4 8.4 8.3 8.4 8.4 8.0 8.0 7.6 7.3 7.0 6.7 6.7 6.5 6.4 6.2 6.2 6.3 6.4 6.3 6.4 6.4
5.7 5.6 6.0 6.1 6.0 6.4 6.7 6.5 6.8 7.1 7.2 7.2 7.3 7.2 7.3 8.0 8.2 8.4 8.7 8.9 8.9 8.5 7.4 6.7 7.3 7.9 8.2 8.4 8.2 7.8 7.4 7.5 7.0 6.9 6.8 6.5 6.2 6.1 6.1 6.4 6.2 6.3 6.4 6.4
5.9 5.5 6.0 6.4 6.3 5.9 6.0 7.0 7.7 7.2 7.4 7.4 7.4 7.4 8.0 8.4 8.5 8.4 8.6 9.2 9.0 7.9 7.1 7.4 7.6 7.6 7.8 8.0 7.9 7.7 7.4 7.4 7.1 6.9 6.9 6.6 6.3 6.3 6.5 6.5 6.2 6.4 6.4 6.4
5.0 5.6 5.9 5.4 6.0 6.0 6.0 6.7 7.2 7.4 6.9 7.2 7.4 7.4 7.1 7.1 7.5 7.9 8.5 8.9 8.8 7.8 7.8 7.4 7.4 6.6 7.0 7.5 7.5 7.7 7.7 7.6 7.2 7.2 7.1 6.8 6.6 6.7 6.6 6.4 6.3 6.4 6.3 6.2
5.3 5.4 5.8 5.3 5.8 4.3 6.2 6.7 6.9 7.0 7.1 7.2 7.4 6.9 6.3 6.8 7.7 8.2 8.4 8.7 8.2 7.9 8.1 7.9 7.6 7.9 7.6 7.9 7.3 7.9 7.6 7.5 7.2 7.2 7.1 7.2 7.3 6.9 6.7 6.5 6.5 6.3 6.3 6.4
6.8 6.2 5.9 6.0 6.2 5.7 5.6 6.2 6.9 7.4 6.9 7.2 6.9 6.8 6.9 7.0 7.7 7.9 8.4 8.5 8.1 7.8 7.9 7.2 7.3 8.2 8.5 8.3 7.9 7.7 7.3 7.1 6.9 6.8 7.3 7.7 7.4 7.0 6.8 6.7 6.6 6.4 6.4 6.3
6.7 6.8 6.6 6.3 6.5 5.3 6.0 7.1 7.3 7.7 6.8 6.9 7.3 6.5 6.2 6.6 7.4 8.1 8.5 8.5 8.3 7.8 8.1 7.6 7.5 7.3 8.1 8.0 7.7 7.5 7.4 7.3 7.0 6.9 7.3 7.5 7.4 7.2 6.7 6.6 6.5 6.4 6.3 6.3
6.5 6.8 6.8 6.4 6.5 6.1 6.2 6.8 8.0 8.0 6.7 6.7 6.5 6.5 6.0 6.3 6.7 7.9 7.5 8.1 8.2 7.9 7.7 7.4 7.8 7.7 7.8 8.1 7.9 7.4 6.8 6.5 6.8 7.0 7.5 7.2 7.2 7.2 7.0 6.6 6.5 6.4 6.4 6.3
6.0 6.8 7.3 7.2 6.9 6.2 6.6 7.5 7.4 7.4 7.0 6.8 5.7 5.7 6.0 5.8 6.3 7.1 7.4 8.0 8.1 7.7 7.4 7.5 6.8 7.4 7.4 8.0 8.0 7.8 7.6 7.2 6.8 7.0 7.2 7.1 7.1 6.8 6.9 6.7 6.5 6.5 6.3 6.3
5.6 6.1 6.5 6.5 6.3 6.9 7.7 6.6 6.5 7.0 6.5 6.3 5.8 5.0 5.1 6.0 6.3 6.6 7.3 7.6 8.2 7.5 7.0 7.1 6.8 7.3 7.6 7.2 7.7 8.3 7.9 7.5 7.1 7.1 7.0 7.1 7.1 7.0 6.9 6.8 6.8 6.8 6.6 6.4
6.3 6.5 6.1 6.1 6.1 6.4 6.6 6.7 6.7 6.3 6.1 5.8 5.6 4.9 4.6 5.4 6.2 6.4 7.1 6.8 7.9 7.2 7.1 6.8 6.3 6.5 7.2 7.5 7.6 7.8 7.5 7.4 7.5 7.3 7.4 7.2 7.1 7.3 7.2 6.8 6.6 6.8 6.7 6.6
5.8 6.3 6.0 5.5 6.1 6.1 6.1 6.7 6.7 6.3 6.0 5.8 5.5 4.8 4.2 4.1 5.8 6.1 6.4 6.7 6.0 7.3 7.0 6.6 6.3 6.5 7.0 7.1 7.5 7.6 7.6 7.1 7.1 7.1 7.2 7.0 7.1 7.3 7.2 6.9 6.8 6.8 6.7 6.5
5.8 5.7 5.9 5.7 6.8 6.8 6.2 6.4 6.5 6.2 6.3 5.9 5.5 5.2 4.6 4.0 4.8 6.0 6.4 6.5 6.4 6.9 6.8 6.9 6.9 7.0 6.8 6.8 6.9 7.3 7.3 7.1 7.0 6.8 6.8 6.9 6.8 7.1 7.1 7.0 7.0 7.0 6.7 6.4
Wind_Speed
6 3 6 10 12 11 11 10 10 7 12 6 11 11 16 16 10 12 11 10 10 11 10 9 15 13 13 9 10 8 9 7 6 4 4 4 4 4 4 10 13 15 16 17
6 8 11 13 13 10 14 16 16 12 14 7 12 17 16 17 16 16 16 17 15 10 15 14 14 10 8 9 8 8 8 8 5 4 3 3 6 3 5 10 13 15 18 15
9 9 15 15 13 10 7 7 9 11 16 13 10 16 22 19 17 15 13 15 16 17 17 14 14 12 12 10 10 10 9 10 8 5 5 5 6 7 3 4 4 9 16 16
11 9 14 12 8 9 10 11 11 8 8 7 4 5 3 9 10 17 16 16 15 16 16 12 13 12 11 10 9 10 11 7 7 7 9 11 7 8 4 4 4 6 15 15
8 6 8 10 7 8 7 6 5 4 7 4 6 3 12 17 10 17 10 13 15 20 20 18 14 16 13 13 11 9 8 7 7 8 9 6 6 7 6 6 7 6 9 15
8 9 6 5 8 8 3 5 6 3 2 2 8 6 7 17 25 22 13 12 13 21 20 18 16 16 16 13 13 11 12 9 11 8 7 9 12 12 9 7 6 4 4 6
10 15 9 9 8 5 3 3 2 3 2 7 11 8 12 12 18 23 21 16 21 21 21 20 20 14 16 16 15 13 13 10 9 8 11 11 12 11 10 8 7 7 4 4
7 6 13 11 12 8 8 7 5 6 6 11 11 5 9 9 15 19 28 27 17 20 18 20 19 17 16 14 14 12 13 10 9 9 9 8 10 7 6 6 7 6 5 5
5 7 13 9 10 10 8 11 9 8 8 4 5 8 14 15 19 10 26 23 23 23 23 23 21 21 18 15 11 9 10 9 9 9 8 9 7 8 8 11 10 7 6 6
7 6 6 10 8 8 15 9 7 4 4 7 11 10 9 12 11 14 17 22 25 25 24 22 21 21 19 21 17 11 11 12 11 10 8 7 9 10 10 10 10 9 6 9
10 4 6 6 1 5 9 2 3 5 5 6 9 12 10 16 12 7 8 16 27 28 27 25 23 20 19 17 13 13 11 12 12 11 8 11 10 9 9 10 10 10 8 10
8 3 4 6 14 11 8 11 5 5 7 5 4 13 6 10 11 8 13 14 13 26 26 24 22 22 21 20 17 15 11 11 10 10 11 11 10 10 10 9 8 9 9 13
8 4 4 7 4 5 5 9 17 14 4 9 5 14 5 12 14 9 11 8 15 24 24 20 20 21 21 21 19 18 14 14 11 10 11 11 10 11 10 10 8 8 10 9
7 3 5 5 10 12 13 20 17 9 5 6 9 18 10 11 15 11 9 6 13 19 15 16 20 20 21 21 20 18 16 15 12 13 12 11 10 11 11 10 10 10 9 11
9 4 8 11 13 14 19 18 17 16 13 8 16 22 17 17 18 13 9 7 17 20 22 18 12 17 19 20 18 18 17 17 14 14 13 11 9 11 11 10 10 9 10 10
9 5 9 14 11 12 16 20 21 17 17 16 19 21 12 21 24 21 11 7 18 17 25 27 25 21 22 21 20 19 18 17 15 15 14 12 13 12 12 10 10 9 10 11
5 2 4 8 9 11 13 18 16 18 15 16 16 19 15 17 20 18 19 6 24 23 25 23 23 21 19 20 21 21 20 18 16 16 15 14 14 14 12 11 11 11 10 10
11 7 5 7 8 4 11 7 13 17 17 15 9 12 13 16 20 13 22 23 22 21 24 26 21 21 23 21 20 19 19 18 16 16 16 15 15 14 12 12 11 9 8 10
17 11 5 2 6 13 19 13 8 8 20 19 5 14 16 20 14 5 27 27 25 17 21 20 23 24 23 24 22 21 20 19 18 17 17 16 15 15 14 13 11 9 9 8
15 11 10 3 4 6 3 7 9 14 15 15 14 15 17 16 7 7 26 29 28 20 17 15 16 16 19 21 22 22 21 21 20 18 17 16 15 15 14 12 11 9 9 9
8 8 8 11 11 11 10 12 13 8 3 13 14 12 12 9 8 17 21 27 24 20 7 15 20 18 21 21 21 21 21 20 19 17 17 15 15 15 14 12 10 10 10 10
14 6 3 6 9 10 16 9 6 5 10 13 13 13 11 13 18 18 22 24 25 24 12 16 19 20 19 23 23 22 22 20 18 18 17 15 14 12 11 14 10 11 10 10
7 4 3 4 5 18 20 5 5 2 7 3 9 13 12 9 14 20 18 22 24 20 18 11 13 17 20 22 21 21 20 20 20 20 19 17 16 14 13 13 13 9 11 10
13 12 12 12 4 8 19 12 8 9 11 4 5 8 9 15 13 17 19 18 21 19 19 14 17 15 19 19 20 20 21 20 21 22 20 17 17 14 14 10 10 9 10 10
10 15 19 25 15 11 8 9 16 13 12 14 15 11 12 16 18 11 14 17 19 21 19 20 15 11 18 18 18 18 21 21 19 19 18 16 14 14 13 10 7 9 6 10
12 19 15 16 17 16 16 13 12 14 16 12 14 13 12 13 13 11 10 12 19 21 23 23 19 20 17 19 19 19 21 21 21 19 15 14 12 12 11 8 6 15 5 10
Wind_Direction
230 172 228 233 224 229 262 269 258 269 242 221 215 174 169 177 169 165 177 164 156 138 138 122 113 108 101 91 103 110 119 116 123 120 110 87 108 115 91 88 78 70 75 65
273 225 221 233 246 235 231 249 260 282 271 261 248 199 170 173 178 183 191 172 162 138 147 124 124 126 117 131 127 129 138 146 156 142 146 144 141 116 116 99 86 79 74 72
217 232 220 231 247 255 266 237 257 244 277 284 297 206 164 186 185 189 200 176 170 157 156 142 138 141 136 143 148 154 161 161 158 159 126 113 112 114 87 86 77 82 83 79
235 247 262 263 239 207 235 265 279 296 297 263 175 224 6 172 179 196 186 182 176 159 150 148 138 147 149 157 151 154 164 165 157 139 132 144 141 143 133 114 103 84 88 81
256 277 268 268 250 246 236 257 276 305 300 32 296 125 210 167 226 228 192 181 190 165 159 160 163 155 156 154 162 164 165 168 161 155 151 148 128 118 117 114 106 98 85 89
258 275 245 234 264 245 321 264 291 337 327 262 241 228 225 187 203 209 198 199 162 168 166 165 162 142 154 160 161 170 173 175 171 168 163 145 137 133 132 132 128 116 98 87
284 267 271 268 281 279 50 38 305 296 284 235 254 251 242 206 202 194 198 187 173 173 167 163 159 149 150 161 167 174 174 165 159 152 146 145 141 140 142 147 140 126 110 95
252 282 223 233 218 184 211 180 174 200 223 258 274 243 248 241 220 212 195 198 158 169 166 167 163 150 151 153 159 162 153 146 134 130 128 128 131 141 142 144 129 126 123 119
342 267 292 286 257 210 218 213 211 241 264 263 248 303 282 251 267 229 190 189 175 171 169 171 163 157 152 152 162 155 147 142 136 134 129 130 127 121 125 120 120 124 123 121
330 305 278 314 337 312 214 196 230 237 226 248 249 248 257 277 272 250 198 192 189 179 172 164 164 164 164 161 160 150 151 153 152 140 135 131 129 127 123 123 126 128 130 114
15 354 321 347 204 2 352 352 209 164 181 224 260 245 238 266 267 272 314 215 197 178 175 171 168 162 157 156 153 147 156 156 153 146 133 134 133 129 121 126 129 133 127 124
9 288 277 276 306 304 298 304 307 247 265 238 226 261 319 257 252 261 299 305 199 180 177 171 163 157 156 154 151 155 151 160 156 145 140 138 135 128 131 133 136 133 129 127
344 346 326 333 339 354 349 355 339 343 328 237 204 265 232 274 292 305 272 217 171 177 168 164 160 160 158 157 158 158 157 156 154 145 143 143 140 142 138 141 137 131 128 126
319 266 311 283 309 322 310 323 332 335 302 313 289 299 292 290 275 284 294 308 184 167 160 164 158 163 162 160 161 162 153 153 153 150 148 150 150 148 143 141 139 136 132 127
14 280 293 280 293 306 311 307 312 308 293 284 293 297 307 301 300 282 248 262 168 157 151 158 179 172 169 161 161 159 156 156 156 156 153 154 144 144 142 144 147 144 137 134
340 303 328 300 294 301 303 297 288 276 293 296 297 287 302 326 322 333 300 129 155 177 167 178 179 173 172 167 164 162 159 164 156 157 159 154 152 152 151 153 153 144 139 136
246 266 345 267 326 315 281 256 268 279 273 275 288 296 352 358 336 325 343 235 158 189 174 176 171 178 177 173 166 168 161 160 162 160 162 160 158 157 157 154 147 146 144 139
240 239 278 286 334 260 258 292 273 270 277 291 345 6 353 339 321 300 6 354 345 165 178 181 183 172 175 171 167 161 160 161 163 161 166 163 160 157 156 153 149 144 143 142
229 223 247 246 230 281 293 289 297 291 289 313 356 18 8 350 323 351 358 346 334 282 190 182 180 175 168 168 165 161 161 163 165 168 169 164 161 158 157 159 154 151 144 142
346 212 209 211 245 262 13 312 276 280 263 20 21 20 5 9 14 324 337 335 335 309 179 169 157 160 167 166 164 164 165 167 170 166 167 163 160 160 160 158 158 157 149 149
312 310 249 232 242 262 289 287 315 262 16 346 360 11 7 360 320 316 329 337 340 340 154 141 146 166 179 168 164 165 166 171 168 158 157 159 161 161 157 159 159 156 153 146
267 267 272 261 232 253 20 30 19 327 11 350 339 345 356 340 333 338 333 337 337 347 330 149 158 173 174 170 170 168 171 166 156 152 153 156 159 163 154 159 155 160 151 142
283 265 283 268 263 319 324 267 303 185 276 315 328 309 316 344 338 333 331 329 335 348 353 332 181 178 171 175 171 167 168 162 154 155 158 159 160 166 162 160 162 157 154 153
281 272 272 289 322 312 316 316 271 286 349 339 267 278 327 336 332 328 332 325 333 334 339 340 329 194 175 176 172 167 163 162 157 159 161 160 163 162 163 164 168 165 162 158
256 287 279 273 288 287 292 309 320 319 325 326 325 326 330 326 317 319 322 325 316 328 332 330 312 237 174 173 167 165 164 161 162 160 159 162 164 160 159 157 168 171 166 170
249 250 251 268 278 279 283 279 283 298 300 299 300 312 314 302 299 306 305 321 318 318 323 322 323 340 173 170 168 165 166 163 161 163 164 165 160 160 157 138 95 53 103 166